Location: Arroyo Grande
(40.2671°N, 4.2512°W)
Time: 08:33:54
(UTC+00:00)

Meteor 1-27 - Visible Passes

Search period start: 16 September 2024 00:00
Search period end: 26 September 2024 00:00
Orbit: 836 x 892 km, 81.3° (Epoch: 15 September)

Date Brightness Start Highest point End Pass type
(mag) Time Alt. Az. Time Alt. Az. Time Alt. Az.
16 Sep 6.5 02:07:18 16° E 02:07:18 16° E 02:10:30 10° NE visible
16 Sep 4.1 03:49:38 60° W 03:49:45 60° WNW 03:55:17 10° N visible
17 Sep 6.6 01:59:57 16° ENE 01:59:57 16° ENE 02:02:32 10° NE visible
17 Sep 4.3 03:42:16 58° NW 03:42:16 58° NW 03:47:20 10° N visible
18 Sep 6.7 01:52:31 15° ENE 01:52:31 15° ENE 01:54:34 10° NE visible
18 Sep 4.6 03:34:51 51° NW 03:34:51 51° NW 03:39:22 10° N visible
19 Sep 6.8 01:45:05 14° ENE 01:45:05 14° ENE 01:46:35 10° NE visible
19 Sep 4.9 03:27:24 44° NNW 03:27:24 44° NNW 03:31:25 10° N visible
20 Sep 6.9 01:37:36 13° ENE 01:37:36 13° ENE 01:38:37 10° NE visible
20 Sep 5.2 03:19:56 38° NNW 03:19:56 38° NNW 03:23:26 10° N visible
21 Sep 7.0 01:30:06 12° NE 01:30:06 12° NE 01:30:39 10° NE visible
21 Sep 5.4 03:12:25 32° N 03:12:25 32° N 03:15:29 10° N visible
22 Sep 7.1 01:22:33 10° NE 01:22:33 10° NE 01:22:40 10° NE visible
22 Sep 5.7 03:04:52 28° N 03:04:52 28° N 03:07:32 10° N visible
23 Sep 5.9 02:57:18 24° N 02:57:18 24° N 02:59:34 10° N visible
24 Sep 6.1 02:49:43 21° N 02:49:43 21° N 02:51:36 10° N visible
25 Sep 6.3 02:42:07 19° N 02:42:07 19° N 02:43:39 10° N visible
